TimeMDT,TemperatureF,Dew PointF,Humidity,Sea Level PressureIn,VisibilityMPH,Wind Direction,Wind SpeedMPH,Gust SpeedMPH,PrecipitationIn,Events,Conditions,WindDirDegrees,DateUTC
12:53 AM,28.9,26.1,89,30.12,10.0,Calm,Calm,-,N/A,,Clear,0,2012-10-28 06:53:00
1:53 AM,27.0,24.1,89,30.12,10.0,Calm,Calm,-,N/A,,Clear,0,2012-10-28 07:53:00
2:53 AM,27.0,23.0,85,30.08,10.0,SSE,3.5,-,N/A,,Clear,150,2012-10-28 08:53:00
3:53 AM,27.0,24.1,89,30.08,10.0,Calm,Calm,-,N/A,,Mostly Cloudy,0,2012-10-28 09:53:00
4:53 AM,27.0,24.1,89,30.07,10.0,Calm,Calm,-,N/A,,Scattered Clouds,0,2012-10-28 10:53:00
5:53 AM,27.0,24.1,89,30.09,10.0,Calm,Calm,-,N/A,,Clear,0,2012-10-28 11:53:00
6:53 AM,26.1,24.1,92,30.09,10.0,SE,4.6,-,N/A,,Clear,130,2012-10-28 12:53:00
7:53 AM,27.0,25.0,92,30.08,10.0,SSE,3.5,-,N/A,,Clear,160,2012-10-28 13:53:00
8:53 AM,28.9,26.1,89,30.09,10.0,South,4.6,-,N/A,,Scattered Clouds,180,2012-10-28 14:53:00
9:53 AM,30.9,28.0,89,30.08,10.0,Calm,Calm,-,N/A,,Clear,0,2012-10-28 15:53:00
11:53 AM,44.1,34.0,68,30.00,10.0,South,4.6,-,N/A,,Overcast,170,2012-10-28 17:53:00
12:53 PM,53.1,36.0,52,29.96,10.0,WSW,6.9,-,N/A,,Mostly Cloudy,240,2012-10-28 18:53:00
1:53 PM,57.9,36.0,44,29.91,10.0,West,25.3,33.4,N/A,,Partly Cloudy,280,2012-10-28 19:53:00
2:53 PM,57.9,34.0,41,29.92,10.0,West,26.5,39.1,N/A,,Clear,280,2012-10-28 20:53:00
3:53 PM,57.0,34.0,42,29.94,10.0,West,23.0,29.9,N/A,,Clear,280,2012-10-28 21:53:00
4:53 PM,60.1,34.0,38,29.94,10.0,West,20.7,32.2,N/A,,Clear,280,2012-10-28 22:53:00
5:53 PM,53.1,36.0,52,29.97,10.0,WSW,13.8,-,N/A,,Clear,250,2012-10-28 23:53:00
6:53 PM,52.0,36.0,54,29.99,10.0,West,13.8,-,N/A,,Clear,260,2012-10-29 00:53:00
7:53 PM,48.0,36.0,63,30.01,10.0,WNW,5.8,-,N/A,,Clear,290,2012-10-29 01:53:00
8:53 PM,45.0,35.1,68,30.03,10.0,Calm,Calm,-,N/A,,Clear,0,2012-10-29 02:53:00
9:53 PM,42.1,35.1,76,30.04,10.0,Calm,Calm,-,N/A,,Clear,0,2012-10-29 03:53:00
10:53 PM,41.0,35.1,79,30.04,10.0,Calm,Calm,-,N/A,,Clear,0,2012-10-29 04:53:00
11:53 PM,39.0,34.0,82,30.01,10.0,Calm,Calm,-,N/A,,Clear,0,2012-10-29 05:53:00